User: anonymous   Login
Location: DaltonSkyGazer Observatory
(42.4858°N, 73.1565°W)
Time: 22:16:15
(UTC-04:00)
Language:

Helios 1B - Orbit

View from above orbital plane
View from above orbital plane
View from above satellite
View from above satellite

Ground track
Ground track

The orbit data is extracted from the following two-line orbital elements,

1 25977U 99064A   14294.33687737  .00002683  00000-0  35687-3 0  4011
2 25977 098.1580 013.8995 0001790 142.4866 259.7941 14.80588123800393
Epoch (UTC): 21 October 2014 08:05:06
Eccentricity: 0.0001790
inclination: 98.1580°
perigee height: 626 km
apogee height: 629 km
right ascension of ascending node: 13.8995°
argument of perigee: 142.4866°
revolutions per day: 14.80588123
mean anomaly at epoch: 259.7941°
orbit number at epoch: 80039

The dashed part of the orbit path shows where the satellite is in the earth's shadow,  

DLR